GFSGBSN_prec_cthk_159.txt.gz
RH
72 60 49 38 28 23 21 21 21 21 25 29 31 32 28 25 23 23 23 23 24 25 25 25 26 27 25 25 27 29 27 30 33 34 32 29 26 24 23 23 24 24 22 21 21 21 20
83 80 71 62 55 42 34 29 26 24 24 26 31 33 34 31 27 26 28 29 29 30 30 31 32 33 33 31 32 33 34 37 40 39 37 33 30 28 25 26 26 25 25 23 23 22 21
89 89 85 81 76 69 64 50 42 36 33 30 31 33 34 35 33 32 32 34 36 38 37 35 36 38 40 33 36 39 40 40 41 41 39 36 34 32 31 30 27 27 25 23 22 23 22
90 93 92 91 87 84 80 72 62 55 49 46 43 44 44 45 43 41 41 41 43 43 45 46 44 47 46 40 46 47 48 45 45 43 41 40 38 38 34 32 31 30 30 28 23 20 21
88 88 94 92 98 93 95 90 80 72 66 62 58 57 58 57 54 53 52 52 51 52 54 58 57 58 53 53 52 49 50 50 44 44 43 41 42 41 39 37 36 35 35 34 31 26 25
86 86 94 99 97 98 99 98 95 91 82 75 73 73 69 71 71 71 69 67 66 67 67 67 65 69 59 57 57 53 50 50 49 47 43 42 42 44 41 40 40 40 42 40 36 33 29
82 90 88 91 92 94 93 98 97 98 93 91 89 87 87 88 85 86 86 86 86 78 75 66 64 63 61 59 57 55 55 51 50 47 45 44 43 40 40 42 40 39 39 38 34 33 31
76 83 86 88 92 90 92 94 96 98 97 95 94 93 94 94 92 95 97 95 90 85 76 72 69 65 67 63 58 55 53 51 52 50 48 46 43 43 43 44 44 43 41 39 38 36 34
76 75 83 88 91 91 88 89 88 88 92 93 93 93 97 95 96 97 96 94 93 91 82 69 64 61 64 63 57 58 58 55 54 55 53 49 46 50 48 46 46 44 43 41 41 38 36
79 79 77 79 79 83 87 90 90 91 94 94 94 91 95 95 94 97 97 92 92 92 82 63 60 58 60 60 54 55 59 60 55 54 58 55 55 52 50 49 50 46 47 45 43 39 37
74 77 86 88 85 84 87 91 93 96 97 96 97 97 96 97 97 96 95 94 92 91 90 64 57 56 55 56 50 48 56 61 60 57 56 50 55 54 53 50 55 51 54 49 45 42 41
84 81 82 86 88 97 94 93 95 94 97 98 97 96 97 96 97 96 96 96 94 97 85 62 55 56 55 57 54 48 51 59 60 62 56 51 54 53 51 51 53 55 55 51 50 49 45
90 86 81 96 94 88 94 95 96 96 92 94 96 96 97 96 96 96 97 98 98 96 64 66 57 54 57 56 54 48 51 56 58 59 56 52 53 52 51 51 52 53 58 60 57 57 44
94 98 93 94 92 90 84 86 87 99 98 97 96 94 96 98 97 96 98 98 97 69 69 65 57 55 55 55 53 52 50 55 55 53 53 51 56 52 50 49 53 54 57 60 65 58 49
80 82 93 93 94 93 85 83 82 82 94 93 99 98 94 97 97 97 96 98 72 70 69 71 63 60 57 56 54 50 50 52 53 54 54 51 52 47 52 54 54 54 57 56 64 60 66
52 61 72 79 84 85 89 84 91 85 87 96 98 97 93 96 94 97 97 90 74 67 66 65 67 62 59 59 62 57 54 54 57 52 53 55 53 50 48 45 51 55 55 66 71 79 70
80 71 59 61 70 74 76 78 84 91 92 99 95 99 96 95 87 87 79 71 65 77 69 63 61 61 59 60 56 57 64 69 60 59 58 59 59 57 52 49 46 49 55 54 61 70 67
67 78 84 81 69 75 70 70 71 83 98 97 93 99 98 97 92 88 79 62 62 56 69 66 63 61 60 66 63 59 60 69 64 64 60 62 63 62 60 61 58 55 58 56 65 57 60
43 53 68 79 84 78 75 73 73 71 80 98 98 98 98 99 91 75 70 74 79 69 64 61 62 59 64 64 69 63 65 66 65 66 69 72 70 68 64 72 64 64 72 72 70 66 63
30 33 39 48 65 81 84 82 79 72 67 77 92 96 98 97 88 90 96 97 97 88 81 76 76 72 71 68 63 63 68 63 58 60 65 72 79 82 78 94 96 97 90 85 87 90 80
29 27 27 30 36 45 60 73 81 81 78 75 83 85 86 95 93 97 97 97 96 97 94 92 90 80 79 81 71 72 67 74 62 61 62 70 71 71 74 84 86 86 82 80 87 87 95
34 32 30 27 26 30 36 47 54 64 80 88 89 85 82 81 80 92 98 98 94 94 98 96 94 83 82 81 80 73 76 73 72 73 68 69 70 67 70 68 68 74 63 69 66 67 79
44 44 42 38 34 31 31 35 40 46 57 77 86 89 89 90 85 87 87 89 89 90 91 91 98 97 91 90 91 91 92 83 86 79 75 79 76 73 76 65 69 76 45 58 50 54 63
53 51 46 43 44 42 38 36 36 41 47 56 61 69 77 74 76 84 86 84 83 84 95 92 94 96 95 91 88 87 87 82 83 77 72 69 71 77 80 68 82 50 42 52 53 48 53
45 44 45 46 40 38 39 34 34 33 39 55 61 60 65 62 58 60 62 65 75 77 82 84 81 89 91 90 90 87 83 87 81 74 70 62 66 84 88 73 63 57 38 58 55 52 44
37 37 38 37 32 30 31 33 30 30 29 39 52 51 55 52 47 49 49 54 59 62 67 58 61 66 88 98 97 94 88 80 75 69 62 69 66 74 88 76 72 50 47 53 50 48 41
38 34 36 42 45 43 37 32 31 28 28 39 50 47 47 49 41 44 45 53 54 56 58 56 60 65 61 82 95 92 83 72 85 72 67 70 71 79 71 78 65 36 56 56 48 42 34
59 49 31 30 38 41 41 40 38 33 31 35 58 62 57 52 49 50 48 47 47 47 50 50 68 70 72 83 94 85 84 76 82 72 72 77 78 80 78 86 80 42 45 55 45 50 48
96 77 59 44 27 28 29 29 35 40 43 53 64 70 67 65 55 56 55 53 52 47 47 49 55 51 75 75 80 93 96 92 79 85 69 88 82 70 69 60 60 54 39 44 44 46 36

GFSGBSN_prec_cthk_162.txt.gz
RH
68 60 48 35 26 20 18 17 19 20 23 24 23 25 25 26 28 28 26 25 24 22 21 20 19 19 18 19 20 18 21 24 26 29 31 32 29 29 27 24 22 21 22 23 23 22 22
90 82 76 67 54 45 37 28 23 21 20 21 22 22 23 24 28 29 28 28 32 31 29 25 25 25 28 26 21 26 28 30 31 34 36 36 33 32 29 26 24 24 24 25 26 24 23
94 95 90 84 81 69 60 51 41 34 30 27 25 25 26 26 26 28 29 32 35 35 39 36 33 35 36 27 23 26 29 33 36 37 38 40 39 33 31 29 28 27 27 26 24 22 22
96 94 95 96 95 91 85 76 71 64 53 44 39 36 35 34 34 33 33 35 36 39 41 42 43 44 43 27 28 29 35 39 43 44 42 43 42 37 34 33 30 31 30 28 27 25 22
90 91 92 95 97 97 98 96 92 82 76 66 61 56 53 49 46 44 45 44 42 44 45 49 50 51 45 37 40 41 46 47 49 47 47 45 42 40 39 38 35 34 33 30 30 30 26
86 87 89 93 91 93 96 99 97 95 89 85 80 76 70 64 62 59 57 55 57 57 56 57 54 56 47 49 48 50 50 51 51 46 46 45 43 42 39 39 39 38 40 37 36 34 30
88 89 88 89 90 90 96 96 98 98 98 96 90 84 85 79 74 76 73 75 75 69 67 60 55 53 54 58 54 57 55 53 53 50 48 46 45 42 39 39 41 42 40 38 38 38 34
79 78 87 85 90 91 92 95 94 97 94 97 98 93 89 90 91 90 88 90 86 82 75 74 72 68 63 64 62 59 58 57 55 54 50 48 42 41 41 41 42 43 43 40 38 39 39
64 71 74 78 84 87 87 87 92 94 94 94 95 94 94 94 94 95 95 94 97 94 88 72 68 62 67 69 64 65 64 55 53 51 50 48 46 48 45 43 45 44 44 44 43 43 39
58 60 66 74 77 83 84 87 85 89 93 93 94 96 94 96 96 96 98 99 96 95 93 63 61 58 65 69 62 61 63 63 55 52 51 49 54 53 51 50 50 51 50 48 46 46 42
63 63 62 64 72 83 86 82 78 77 88 90 94 95 96 94 96 96 94 94 96 95 96 63 62 60 61 64 61 56 58 60 61 62 60 48 57 58 56 55 58 50 59 59 53 51 47
70 71 68 73 73 74 78 83 85 85 81 85 94 96 97 96 97 97 96 96 96 98 89 64 57 58 57 61 62 55 55 57 63 67 64 57 59 59 55 54 55 54 60 61 61 58 53
73 74 75 72 72 75 81 80 83 86 92 93 89 90 92 94 95 97 98 98 98 97 62 66 57 55 55 59 61 59 55 61 63 68 64 60 58 58 58 58 55 55 58 66 66 69 51
84 88 85 85 81 83 83 81 86 82 87 88 87 92 90 89 91 97 98 98 98 73 70 68 59 55 55 58 57 57 56 57 60 62 59 58 60 57 52 55 60 57 61 66 74 68 52
69 90 94 95 93 91 84 84 86 91 97 94 88 87 87 90 94 93 96 97 86 73 71 85 80 64 58 57 56 55 52 53 55 59 60 57 53 54 57 58 58 59 63 60 65 63 72
62 64 77 88 97 97 97 94 92 93 93 93 91 92 90 92 97 98 98 88 73 73 75 74 83 69 64 62 63 59 55 55 52 54 58 59 60 58 54 49 58 62 59 65 77 91 72
69 67 67 74 81 90 96 97 89 87 89 97 99 97 96 99 98 99 94 81 78 75 81 80 71 71 65 63 61 64 63 62 58 61 62 61 59 51 57 50 51 50 55 61 64 81 87
65 70 75 72 72 77 82 88 95 93 95 99 96 96 98 99 99 98 88 79 73 67 71 73 67 63 64 65 67 62 59 72 68 64 68 69 68 65 62 60 62 61 58 58 66 70 68
39 49 58 68 74 76 78 84 83 90 96 98 99 98 98 96 98 98 90 86 80 78 69 70 62 56 54 54 68 60 58 64 60 68 71 72 75 69 61 59 65 76 74 72 73 68 67
32 29 28 37 52 66 75 79 86 84 87 99 98 98 98 98 96 98 98 91 89 80 75 64 61 62 55 54 57 55 57 64 57 56 58 63 67 68 66 81 83 91 91 81 82 91 87
26 25 25 26 24 29 46 66 74 82 88 83 97 96 92 97 98 98 98 96 92 85 86 76 80 77 72 72 68 63 60 61 66 63 56 59 63 61 60 61 71 73 78 83 90 84 94
28 25 23 21 22 23 23 26 50 75 84 91 91 89 94 97 94 96 96 98 96 96 86 93 98 97 94 94 92 84 88 79 81 78 65 66 64 59 63 60 69 78 68 59 65 64 71
32 33 31 28 25 23 22 24 24 30 59 86 88 92 94 95 97 95 91 87 82 90 92 91 98 97 95 99 99 98 96 93 88 90 88 80 79 73 73 62 65 78 51 56 53 53 56
38 36 36 35 35 31 28 26 27 28 32 59 73 93 95 88 88 93 91 89 89 87 90 88 89 92 92 91 89 88 86 89 85 82 80 76 87 85 83 77 91 49 49 53 59 56 58
44 45 46 46 40 35 38 35 34 34 37 46 56 63 78 82 71 71 72 84 86 83 81 82 78 82 94 89 88 84 81 84 82 72 75 72 80 85 90 81 63 60 42 47 59 55 49
35 40 44 44 44 42 35 36 34 34 37 41 56 55 64 66 56 55 57 63 63 67 74 68 68 67 75 85 85 95 84 80 75 70 62 68 71 83 94 89 80 43 37 45 57 79 49
43 37 35 38 39 39 36 32 34 31 32 36 51 53 55 60 46 52 53 60 56 58 56 52 59 65 72 77 85 86 88 74 87 88 79 75 76 86 86 83 65 38 37 55 66 42 43
82 62 48 35 34 34 36 34 31 31 27 28 38 53 62 54 49 54 50 47 48 50 52 54 69 66 81 85 76 71 76 69 75 63 67 68 90 85 73 87 80 28 49 69 49 62 55
68 87 80 55 39 31 42 51 42 36 32 30 42 61 67 64 58 57 50 49 52 52 52 54 53 46 52 73 80 83 92 91 85 91 60 78 73 82 83 62 49 42 50 48 62 57 48

GFSGBSN_prec_cthk_168.txt.gz
RH
64 48 39 32 27 21 17 18 20 22 22 23 24 26 25 26 26 25 25 25 23 22 21 20 19 18 17 17 12 12 14 16 18 20 23 25 25 26 26 27 27 27 26 26 26 24 23
80 69 63 50 41 34 30 23 19 18 19 21 23 27 26 26 24 23 23 22 22 21 20 20 21 21 22 23 14 17 20 23 24 26 26 28 30 32 33 30 31 31 30 29 28 26 25
89 87 80 76 62 52 48 35 33 29 24 21 19 22 21 22 24 24 23 22 22 19 20 20 21 24 25 19 19 19 22 23 25 28 28 30 33 36 38 38 36 34 33 31 29 27 25
99 99 93 89 88 85 76 69 57 50 45 40 37 36 34 33 30 29 28 28 28 24 23 25 29 27 27 15 18 18 19 20 24 26 28 31 34 39 43 42 40 40 38 35 30 30 27
99 99 99 99 96 98 97 95 91 88 80 70 61 55 50 48 43 42 39 39 41 39 37 35 34 33 30 26 24 24 28 30 28 27 27 31 39 45 48 48 46 43 45 39 35 31 31
97 97 98 97 99 97 98 97 98 95 92 88 84 82 84 79 76 64 60 57 55 51 51 50 47 47 34 32 32 34 36 37 37 39 41 42 48 52 51 52 53 49 45 41 38 34 35
96 96 96 96 94 97 97 95 94 93 90 93 93 90 88 89 87 82 78 77 71 71 66 59 53 41 38 37 41 40 42 43 44 45 47 47 53 54 50 51 50 49 47 43 39 35 40
94 94 95 96 95 96 95 93 92 96 95 96 97 95 95 95 92 90 92 89 85 82 76 70 65 61 57 55 51 42 48 51 49 50 54 54 50 51 52 54 54 52 50 46 42 40 39
79 89 90 94 93 94 94 93 95 94 97 96 97 98 98 96 95 91 92 91 91 91 85 64 62 56 60 62 55 52 56 54 59 55 54 55 54 55 55 56 58 55 51 47 45 44 42
65 66 77 81 86 90 90 92 93 94 97 96 95 96 96 95 92 88 86 87 84 89 89 64 61 52 55 60 54 51 57 59 62 60 60 57 57 57 59 57 59 55 53 52 51 54 53
63 58 58 58 65 71 79 83 93 94 94 91 93 92 89 89 87 83 81 82 86 93 93 55 56 55 54 55 49 46 51 63 60 64 64 57 56 58 59 60 63 59 63 60 61 61 58
61 63 57 57 54 50 55 62 71 81 87 91 86 86 86 83 82 73 80 89 95 99 85 58 51 55 60 58 54 45 54 60 63 69 67 63 60 63 59 61 64 66 68 64 61 63 66
64 62 58 56 52 50 49 56 61 69 73 75 77 80 77 80 76 75 82 92 99 97 65 60 53 54 55 57 59 51 50 58 60 68 67 67 66 66 67 66 68 72 76 91 76 77 65
73 67 64 61 61 56 54 55 68 69 70 82 78 79 84 78 73 79 84 95 96 70 72 68 66 60 57 54 55 63 59 53 54 55 59 63 68 58 57 63 65 68 74 88 85 79 66
81 77 75 71 75 66 67 63 65 75 87 86 88 86 85 75 78 83 87 94 74 65 66 73 78 72 65 60 60 63 65 57 52 52 61 64 61 47 48 54 62 66 74 73 83 81 85
94 91 89 78 77 77 74 74 73 74 78 80 82 82 82 78 84 89 91 90 68 62 61 65 74 73 69 63 64 67 63 54 56 50 55 56 56 48 45 49 53 57 64 80 94 97 97
84 86 81 84 84 89 78 82 83 78 80 83 87 85 79 83 93 99 97 87 75 68 70 76 73 77 76 69 65 65 58 57 58 54 55 58 55 54 53 52 55 54 65 79 88 96 97
75 71 71 81 81 76 82 82 82 90 87 93 98 93 83 90 99 98 97 90 82 75 81 83 87 82 78 90 85 78 67 64 62 61 64 62 65 66 60 57 57 58 64 81 98 98 96
61 61 60 64 70 76 75 87 89 90 91 92 96 96 93 98 98 98 98 97 96 95 94 91 93 88 79 87 98 93 82 74 71 72 74 67 74 72 67 66 68 68 71 71 73 77 81
49 48 48 50 53 61 63 69 77 85 87 92 98 96 97 97 98 99 98 98 98 96 97 97 94 91 91 92 89 84 82 80 77 75 74 77 81 73 69 71 73 79 78 77 80 93 93
37 35 34 33 38 45 48 52 61 63 67 76 93 95 93 96 98 98 98 97 98 98 98 98 97 96 96 96 86 87 87 84 80 76 76 74 71 73 71 70 74 79 76 66 69 65 79
39 36 31 29 27 26 38 44 49 52 55 58 70 83 85 91 96 95 96 97 98 98 98 98 99 98 94 98 95 93 90 88 90 86 80 79 78 74 66 62 66 76 60 51 56 51 57
35 32 32 28 26 23 22 23 33 41 46 55 55 65 73 83 86 88 89 89 95 97 95 97 98 98 98 98 98 90 85 84 84 91 87 84 75 76 71 56 65 83 47 53 42 47 50
40 38 33 30 25 23 22 22 20 26 41 48 51 56 63 68 71 75 75 88 95 96 95 95 95 93 92 96 92 87 82 79 78 79 88 88 85 85 78 78 96 54 38 39 46 43 49
36 40 41 38 34 29 24 21 21 22 26 42 50 55 63 71 73 72 73 75 88 90 87 89 86 84 83 86 87 82 89 87 78 75 81 82 91 98 96 81 66 60 37 42 51 42 43
42 32 38 43 46 42 35 29 24 24 26 35 46 44 51 66 69 66 65 63 70 82 79 81 79 81 84 87 89 85 94 96 89 88 78 77 93 99 99 97 89 59 41 51 65 77 32
60 56 38 34 40 45 46 41 33 28 28 34 52 51 48 49 47 55 59 55 56 58 66 75 73 78 80 84 86 83 76 82 96 92 84 93 92 94 90 97 95 61 57 62 80 62 45
74 79 65 46 33 34 48 51 43 34 32 32 47 51 49 48 48 51 55 56 53 53 56 59 60 67 74 79 83 79 80 72 72 68 73 79 93 94 94 97 94 73 70 79 78 71 54
49 59 73 86 67 45 35 44 47 42 37 33 33 44 44 49 48 51 50 50 47 52 57 58 59 57 64 68 68 71 73 76 74 76 62 76 76 87 91 88 87 78 80 87 87 71 60

GFSGBSN_prec_cthk_171.txt.gz
RH
73 61 43 31 26 22 20 21 23 24 24 24 23 24 24 24 24 23 23 23 23 22 20 19 17 16 15 16 12 13 12 11 11 13 17 21 24 26 28 28 28 28 28 28 28 28 27
83 83 72 54 40 33 27 25 21 20 22 25 25 24 25 24 24 24 23 22 22 21 19 18 18 18 19 21 12 13 13 13 15 19 21 23 27 30 31 30 30 29 31 32 32 31 32
85 84 82 75 63 48 43 38 33 26 23 22 21 22 23 23 23 23 22 22 22 22 20 19 18 21 22 13 11 11 12 12 16 21 22 24 26 30 33 32 31 33 36 35 34 34 35
96 92 87 84 82 74 59 53 49 42 36 30 26 24 23 21 20 19 19 22 23 25 24 27 27 28 27 18 16 15 16 15 15 17 19 23 26 29 31 31 32 35 38 41 36 37 37
98 97 96 95 94 86 83 71 63 56 54 52 44 38 33 31 30 30 31 32 35 39 38 41 43 42 37 30 28 27 25 28 27 24 22 26 27 31 34 37 40 40 45 45 45 39 38
96 98 95 96 98 99 96 92 86 83 79 75 73 68 64 57 55 49 49 53 55 58 60 57 52 51 42 40 37 36 36 33 35 35 39 36 33 35 39 40 46 49 49 48 47 43 41
98 99 98 95 98 99 98 99 99 98 95 94 91 90 84 84 84 81 77 80 76 75 68 62 58 49 43 42 43 39 37 37 38 41 41 43 45 43 38 42 45 49 49 48 47 47 46
95 97 99 97 98 96 96 97 98 98 98 96 94 96 95 95 95 94 91 88 83 82 75 68 64 59 57 56 48 44 45 48 47 48 46 44 46 47 47 51 52 52 52 50 48 49 49
95 96 92 94 97 97 97 97 96 96 98 98 95 99 98 98 96 94 92 89 91 90 83 64 62 55 56 58 53 50 57 54 52 52 53 52 47 48 50 52 55 54 55 54 54 51 48
95 94 88 89 93 94 96 94 96 95 95 96 97 98 97 99 98 98 95 96 98 95 87 62 58 49 49 53 52 47 50 56 55 49 55 53 50 50 53 54 57 55 55 54 54 57 58
85 85 81 83 84 85 89 94 96 94 93 95 98 97 98 99 97 97 94 96 97 97 94 56 54 50 50 51 48 42 47 56 56 56 57 51 52 54 56 53 59 55 60 61 62 65 63
83 81 79 71 73 74 76 81 89 92 93 95 98 96 97 97 96 94 93 95 98 99 85 58 56 56 55 53 51 45 51 55 57 61 56 52 55 55 52 53 55 59 64 67 67 68 70
84 92 80 67 66 62 63 61 65 79 82 90 97 98 97 96 93 96 96 96 99 97 60 57 53 54 54 54 54 51 55 59 62 66 61 58 53 54 57 60 61 65 69 84 83 85 68
91 90 84 76 65 58 54 55 52 54 58 63 76 94 97 98 92 92 92 95 96 66 59 55 56 53 55 55 57 59 56 63 60 59 60 68 63 56 50 49 57 63 72 83 86 83 71
90 88 85 73 69 63 54 52 49 52 57 65 81 89 82 83 86 94 92 99 76 57 55 56 58 60 53 50 59 64 63 59 58 61 64 65 60 49 49 47 55 60 69 63 79 84 91
88 84 82 74 67 64 65 59 56 59 61 71 84 91 82 81 88 93 97 93 78 66 63 59 64 60 61 53 59 68 70 58 60 58 62 62 66 51 45 48 55 61 63 82 85 88 92
75 72 67 65 73 79 78 73 70 64 63 82 77 78 89 99 99 99 98 94 77 67 67 69 64 64 63 60 61 60 62 58 56 57 64 61 64 57 50 48 54 66 75 83 88 88 87
94 87 90 84 83 78 82 83 81 77 75 75 82 84 96 99 99 98 93 97 81 76 73 77 78 72 68 70 75 70 65 62 56 56 62 63 72 69 60 55 56 59 72 79 89 94 94
78 77 80 84 80 85 81 87 95 89 88 89 91 87 92 90 96 98 85 92 92 89 84 94 93 86 83 79 87 83 73 72 73 64 68 68 77 71 64 67 66 70 71 76 80 86 94
66 64 62 68 76 76 79 81 89 95 94 95 94 93 91 96 97 98 99 98 99 92 92 98 97 92 93 91 84 87 93 90 86 80 72 77 75 69 70 72 75 81 76 76 77 88 87
48 48 49 52 54 57 63 71 78 86 85 91 93 94 94 97 98 98 97 98 96 98 98 98 97 98 96 96 95 98 89 88 88 95 94 95 97 86 81 78 81 81 85 86 83 82 92
43 38 39 37 43 47 48 53 53 60 68 72 83 81 88 91 94 95 95 98 97 97 94 97 97 98 99 99 98 98 97 97 86 87 94 95 96 89 96 84 84 88 86 78 74 70 73
43 42 40 36 33 32 37 45 47 49 51 52 57 68 75 85 83 87 86 95 96 95 92 93 94 95 97 97 98 97 98 96 93 93 93 95 94 94 92 80 86 97 74 65 68 70 64
46 49 46 42 37 34 30 30 34 42 47 48 49 54 60 68 75 75 75 79 82 84 92 93 92 87 91 92 95 95 95 94 91 89 90 92 95 91 88 79 94 56 50 50 52 52 53
35 41 45 43 39 37 30 27 26 27 40 47 48 48 50 57 59 61 66 68 71 75 79 77 77 79 83 88 93 91 93 92 83 78 84 87 93 97 97 89 75 71 44 54 58 49 43
51 48 41 47 48 42 35 30 25 24 26 38 42 46 49 53 58 58 62 65 66 73 74 66 65 68 78 89 86 93 94 96 90 85 80 84 90 98 97 96 90 56 51 51 56 62 44
54 61 58 48 44 53 53 41 33 28 28 35 40 39 43 44 52 56 56 56 55 60 65 67 73 76 79 88 90 85 77 79 88 88 84 96 95 95 92 98 93 73 67 61 75 64 59
35 55 70 67 53 38 52 54 43 35 30 32 43 46 44 43 42 44 44 47 49 50 55 57 68 72 76 81 84 82 84 75 73 70 73 84 96 96 92 93 96 87 81 89 90 76 67
62 46 49 71 77 54 37 50 50 40 35 30 39 45 48 46 41 39 43 44 49 56 57 59 61 63 72 74 74 79 76 76 72 75 61 72 72 84 90 85 87 88 85 84 86 87 86